Date,TemperatureHighF,TemperatureAvgF,TemperatureLowF,DewpointHighF,DewpointAvgF,DewpointLowF,HumidityHigh,HumidityAvg,HumidityLow,PressureMaxIn,PressureMinIn,WindSpeedMaxMPH,WindSpeedAvgMPH,GustSpeedMaxMPH,PrecipitationSumIn
2013-1-1,34,29,15,-4,-13,-19,36,19,13,30.30,30.17,24,12,24,0.01
2013-1-2,31,17,7,-10,-29,-37,33,16,10,30.37,30.27,2,1,7,0.00
2013-1-3,14,14,14,-31,-31,-31,13,13,13,30.32,30.32,1,1,2,0.00
2013-1-4,35,27,14,-11,-25,-31,25,13,10,30.44,30.32,5,3,14,0.01
2013-1-5,43,30,18,13,-6,-22,44,27,10,30.44,30.23,5,2,16,0.00
2013-1-6,36,33,31,7,1,-2,31,27,25,30.22,30.12,6,4,19,0.01
2013-1-7,41,32,17,4,-11,-22,40,18,10,30.55,30.19,8,4,18,0.01
2013-1-8,51,38,23,-1,-14,-21,33,16,10,30.38,30.30,4,2,11,0.00
2013-1-9,47,36,22,7,-2,-14,51,23,11,30.61,30.27,4,1,9,0.00
2013-1-10,44,38,30,22,3,-19,46,28,10,30.62,30.16,4,2,11,0.44
2013-1-11,62,54,45,43,29,13,66,43,18,30.14,29.94,8,4,23,0.01
2013-1-12,72,56,40,48,33,9,71,47,12,30.10,29.83,6,2,102,0.00
2013-1-13,56,37,22,47,24,-3,73,60,34,30.32,29.79,7,2,21,0.41
2013-1-14,25,21,17,0,-13,-30,38,24,10,30.56,30.33,0,0,0,0.00
2013-1-15,34,28,21,0,-10,-26,27,13,10,30.51,30.21,4,2,10,0.00
2013-1-16,40,30,23,3,-13,-24,39,21,10,30.21,30.07,4,2,11,0.00
2013-1-17,44,34,22,-1,-14,-19,25,14,10,30.53,30.20,6,2,15,0.00
2013-1-18,43,31,18,-8,-22,-31,27,15,10,30.59,30.25,9,4,49,0.38
2013-1-20,22,22,22,0,0,0,0,0,100,30.31,30.31,4,3,10,0.00
2013-1-21,22,18,12,0,-23,-35,16,8,10,30.32,30.24,8,5,20,0.00